Tracking 19634 objects as of 21-May-2019
HD Live streaming from Space Station
objects crossing your sky now

MBSAT

Track MBSAT now!
MBSAT is classified as:


NORAD ID: 28184
Int'l Code: 2004-007A
Perigee: 35,785.7 km
Apogee: 35,802.6 km
Inclination: 0.0 °
Period: 1,436.1 minutes
Semi major axis: 42165 km
RCS: 8.9125 m2 (large)
Launch date: March 13, 2004
Source: Japan (JPN)
Launch site: AIR FORCE EASTERN TEST RANGE (AFETR)

CD-quality radio and data to cellular phones and other portable devices in Japan and South Korea.
aabbcc
Your satellite tracking list
Your tracking list is empty




NASA's NSSDC Master Catalog

Two Line Element Set (TLE):
1 28184U 04007A   19140.82855427  .00000032  00000-0  00000+0 0  9994
2 28184   0.0230 255.4150 0002002 158.8097 183.2569  1.00270263 55661
Source of the keplerian elements: AFSPC